Check out our new BloomSky Weather System.

Active alerts

Galveston, TX
  Details for Galveston, TX Coastal Flood Advisory  +3 additional alerts
Houston, TX
  Details for Houston, TX Flash Flood Watch
Fort Bend, TX
  Details for Fort Bend, TX Flash Flood Watch


Thunder radar  blitzortung!


Rain radar more information rain snow radar


Visit our other weather sites:

Template documentation
and downloads

And another site



Weather Underground History page Text

Daily Summary for March 8, 2017 Units:  English    Metric   Both
« Previous Day
Next Day »
Daily Weekly Monthly Yearly Custom
  High: Low: Average:
Temperature: TemperatureF °F 58.6 °F 65.3 °F
Dew Point: DewpointF °F 43.5 °F 53.8 °F
Humidity: Humidity % 42 % 68 %
Wind Speed: WindSpeedMPH mph 0.0 mph 2.6 mph
Wind Gust: WindSpeedGustMPH mph - -
Wind:- - ESE
Pressure: PressureIn in 30.19 in -
Precipitation: 0.00 in    
Historical Graphs
 
 
Tabular Data for March 8, 2017
Time Temperature Dew Point Pressure Wind Wind Speed Wind Gust Humidity Rainfall Rate (Hourly)
TemperatureF °F DewpointF °F PressureIn in Calm     Humidity % HourlyPrecipIn in
00:04 61.5 °F 50.9 °F 30.27 in ENE 2.0 mph 8.0 mph 68 % 0.00 in
00:09 61.5 °F 50.9 °F 30.27 in NE 2.0 mph 8.0 mph 68 % 0.00 in
00:14 61.5 °F 50.9 °F 30.27 in North 1.0 mph 8.0 mph 68 % 0.00 in
00:19 61.3 °F 50.7 °F 30.27 in North 4.0 mph 8.0 mph 68 % 0.00 in
00:24 61.3 °F 51.1 °F 30.27 in NE 4.0 mph 6.0 mph 69 % 0.00 in
00:29 61.3 °F 51.1 °F 30.27 in Calm   6.0 mph 69 % 0.00 in
00:34 61.3 °F 51.1 °F 30.27 in ESE 4.0 mph 6.0 mph 69 % 0.00 in
00:39 61.3 °F 51.1 °F 30.27 in NE 5.0 mph 7.0 mph 69 % 0.00 in
00:44 61.2 °F 50.5 °F 30.27 in NNW 1.0 mph 7.0 mph 68 % 0.00 in
00:49 61.2 °F 50.9 °F 30.26 in ENE 1.0 mph 10.0 mph 69 % 0.00 in
00:54 61.2 °F 50.5 °F 30.26 in ENE 1.0 mph 10.0 mph 68 % 0.00 in
00:59 61.2 °F 50.5 °F 30.27 in ESE 4.0 mph 12.0 mph 68 % 0.00 in
01:04 61.2 °F 50.9 °F 30.27 in Calm   12.0 mph 69 % 0.00 in
01:09 61.2 °F 50.5 °F 30.27 in ESE 1.0 mph 12.0 mph 68 % 0.00 in
01:14 61.0 °F 50.4 °F 30.26 in NE 1.0 mph 9.0 mph 68 % 0.00 in
01:19 61.0 °F 50.0 °F 30.26 in East 3.0 mph 9.0 mph 67 % 0.00 in
01:24 61.0 °F 50.0 °F 30.26 in East 1.0 mph 9.0 mph 67 % 0.00 in
01:29 61.0 °F 50.0 °F 30.26 in East 3.0 mph 7.0 mph 67 % 0.00 in
01:34 61.0 °F 49.5 °F 30.27 in NE 2.0 mph 8.0 mph 66 % 0.00 in
01:39 61.0 °F 49.1 °F 30.27 in NNW 1.0 mph 8.0 mph 65 % 0.00 in
01:44 61.0 °F 49.1 °F 30.27 in NNE 1.0 mph 8.0 mph 65 % 0.00 in
01:49 61.0 °F 49.1 °F 30.27 in NNE 2.0 mph 8.0 mph 65 % 0.00 in
01:54 61.0 °F 49.1 °F 30.26 in Calm   8.0 mph 65 % 0.00 in
01:59 61.0 °F 49.1 °F 30.26 in Calm   6.0 mph 65 % 0.00 in
02:04 61.0 °F 47.8 °F 30.26 in East 4.0 mph 6.0 mph 62 % 0.00 in
02:09 61.0 °F 47.5 °F 30.26 in ENE 1.0 mph 6.0 mph 61 % 0.00 in
02:14 61.0 °F 47.5 °F 30.25 in NW 1.0 mph 6.0 mph 61 % 0.00 in
02:19 61.0 °F 47.5 °F 30.25 in Calm   8.0 mph 61 % 0.00 in
02:24 61.0 °F 47.5 °F 30.25 in NW 1.0 mph 8.0 mph 61 % 0.00 in
02:29 60.8 °F 47.3 °F 30.25 in East 2.0 mph 8.0 mph 61 % 0.00 in
02:34 60.8 °F 46.8 °F 30.25 in NE 3.0 mph 7.0 mph 60 % 0.00 in
02:39 60.6 °F 46.6 °F 30.25 in East 5.0 mph 7.0 mph 60 % 0.00 in
02:44 60.6 °F 46.6 °F 30.25 in North 3.0 mph 7.0 mph 60 % 0.00 in
02:49 60.6 °F 47.1 °F 30.24 in North 1.0 mph 6.0 mph 61 % 0.00 in
02:54 60.6 °F 47.5 °F 30.24 in NNW 1.0 mph 6.0 mph 62 % 0.00 in
02:59 60.4 °F 46.9 °F 30.24 in NE 2.0 mph 6.0 mph 61 % 0.00 in
03:05 60.4 °F 46.9 °F 30.24 in Calm   6.0 mph 61 % 0.00 in
03:10 60.4 °F 47.3 °F 30.24 in NE 3.0 mph 6.0 mph 62 % 0.00 in
03:15 60.4 °F 47.3 °F 30.24 in Calm   5.0 mph 62 % 0.00 in
03:20 60.3 °F 47.7 °F 30.24 in Calm   6.0 mph 63 % 0.00 in
03:25 60.3 °F 47.7 °F 30.24 in NNE 1.0 mph 6.0 mph 63 % 0.00 in
03:30 60.1 °F 47.5 °F 30.24 in ENE 2.0 mph 6.0 mph 63 % 0.00 in
03:35 60.1 °F 46.9 °F 30.24 in ENE 5.0 mph 6.0 mph 62 % 0.00 in
03:40 60.1 °F 46.9 °F 30.24 in NE 1.0 mph 7.0 mph 62 % 0.00 in
03:45 60.1 °F 47.5 °F 30.24 in NW 1.0 mph 7.0 mph 63 % 0.00 in
03:50 59.9 °F 46.8 °F 30.24 in East 1.0 mph 6.0 mph 62 % 0.00 in
03:55 59.9 °F 46.4 °F 30.24 in ENE 1.0 mph 6.0 mph 61 % 0.00 in
04:00 59.9 °F 46.4 °F 30.24 in ENE 4.0 mph 6.0 mph 61 % 0.00 in
04:05 59.9 °F 46.4 °F 30.24 in ENE 1.0 mph 6.0 mph 61 % 0.00 in
04:10 59.7 °F 45.9 °F 30.24 in ENE 5.0 mph 8.0 mph 60 % 0.00 in
04:15 59.7 °F 45.9 °F 30.24 in Calm   8.0 mph 60 % 0.00 in
04:20 59.7 °F 45.9 °F 30.24 in ENE 2.0 mph 8.0 mph 60 % 0.00 in
04:25 59.7 °F 46.2 °F 30.24 in ENE 3.0 mph 6.0 mph 61 % 0.00 in
04:30 59.5 °F 46.6 °F 30.24 in NNW 1.0 mph 6.0 mph 62 % 0.00 in
04:35 59.5 °F 46.6 °F 30.24 in NNE 2.0 mph 6.0 mph 62 % 0.00 in
04:40 59.5 °F 46.6 °F 30.24 in NE 1.0 mph 6.0 mph 62 % 0.00 in
04:45 59.4 °F 46.4 °F 30.24 in NNW 1.0 mph 5.0 mph 62 % 0.00 in
04:50 59.4 °F 46.4 °F 30.24 in North 3.0 mph 5.0 mph 62 % 0.00 in
04:55 59.4 °F 45.9 °F 30.24 in Calm   5.0 mph 61 % 0.00 in
05:00 59.4 °F 45.5 °F 30.24 in NE 1.0 mph 6.0 mph 60 % 0.00 in
05:05 59.4 °F 45.5 °F 30.24 in Calm   6.0 mph 60 % 0.00 in
05:10 59.4 °F 45.0 °F 30.25 in East 1.0 mph 6.0 mph 59 % 0.00 in
05:15 59.4 °F 45.0 °F 30.25 in North 1.0 mph 4.0 mph 59 % 0.00 in
05:20 59.4 °F 44.6 °F 30.25 in Calm   4.0 mph 58 % 0.00 in
05:25 59.5 °F 45.1 °F 30.25 in North 2.0 mph 4.0 mph 59 % 0.00 in
05:30 59.5 °F 45.1 °F 30.25 in ENE 4.0 mph 4.0 mph 59 % 0.00 in
05:35 59.4 °F 45.0 °F 30.24 in East 4.0 mph 5.0 mph 59 % 0.00 in
05:40 59.4 °F 44.1 °F 30.24 in East 1.0 mph 5.0 mph 57 % 0.00 in
05:45 59.5 °F 44.8 °F 30.25 in NE 1.0 mph 5.0 mph 58 % 0.00 in
05:50 59.5 °F 44.2 °F 30.25 in NNE 1.0 mph 5.0 mph 57 % 0.00 in
05:55 59.5 °F 44.2 °F 30.25 in NE 3.0 mph 5.0 mph 57 % 0.00 in
06:00 59.4 °F 43.7 °F 30.25 in NNW 1.0 mph 5.0 mph 56 % 0.00 in
06:05 59.4 °F 44.1 °F 30.25 in North 4.0 mph 5.0 mph 57 % 0.00 in
06:10 59.2 °F 43.9 °F 30.25 in Calm   5.0 mph 57 % 0.00 in
06:15 59.0 °F 44.2 °F 30.25 in Calm   5.0 mph 58 % 0.00 in
06:20 58.8 °F 44.1 °F 30.25 in NNE 1.0 mph 5.0 mph 58 % 0.00 in
06:26 58.8 °F 44.6 °F 30.25 in NNW 2.0 mph 3.0 mph 59 % 0.00 in
06:30 58.8 °F 44.6 °F 30.25 in Calm   3.0 mph 59 % 0.00 in
06:36 58.6 °F 44.8 °F 30.26 in East 1.0 mph 3.0 mph 60 % 0.00 in
06:41 58.6 °F 44.8 °F 30.26 in East 2.0 mph 4.0 mph 60 % 0.00 in
06:46 58.6 °F 45.3 °F 30.26 in NNE 1.0 mph 4.0 mph 61 % 0.00 in
06:51 58.6 °F 45.3 °F 30.26 in Calm   4.0 mph 61 % 0.00 in
06:56 58.6 °F 45.7 °F 30.26 in Calm   4.0 mph 62 % 0.00 in
07:01 58.6 °F 45.3 °F 30.26 in NE 2.0 mph 4.0 mph 61 % 0.00 in
07:06 58.8 °F 45.0 °F 30.27 in ENE 2.0 mph 4.0 mph 60 % 0.00 in
07:11 58.8 °F 45.0 °F 30.26 in Calm   4.0 mph 60 % 0.00 in
07:16 58.8 °F 45.0 °F 30.26 in ENE 1.0 mph 4.0 mph 60 % 0.00 in
07:21 59.0 °F 44.8 °F 30.27 in Calm   6.0 mph 59 % 0.00 in
07:26 59.2 °F 45.3 °F 30.27 in ENE 5.0 mph 6.0 mph 60 % 0.00 in
07:31 59.2 °F 44.8 °F 30.27 in NW 1.0 mph 6.0 mph 59 % 0.00 in
07:36 59.4 °F 45.0 °F 30.27 in NW 1.0 mph 5.0 mph 59 % 0.00 in
07:41 59.4 °F 45.0 °F 30.27 in North 1.0 mph 7.0 mph 59 % 0.00 in
07:46 59.5 °F 45.7 °F 30.28 in NNW 1.0 mph 7.0 mph 60 % 0.00 in
07:51 59.5 °F 45.1 °F 30.28 in NNW 3.0 mph 7.0 mph 59 % 0.00 in
07:56 59.7 °F 45.3 °F 30.28 in ENE 2.0 mph 6.0 mph 59 % 0.00 in
08:01 59.7 °F 45.0 °F 30.28 in ESE 3.0 mph 7.0 mph 58 % 0.00 in
08:06 59.9 °F 45.1 °F 30.27 in ENE 5.0 mph 8.0 mph 58 % 0.00 in
08:11 60.1 °F 44.8 °F 30.27 in NE 1.0 mph 8.0 mph 57 % 0.00 in
08:16 60.1 °F 44.8 °F 30.28 in ENE 1.0 mph 8.0 mph 57 % 0.00 in
08:21 60.1 °F 44.4 °F 30.28 in NE 4.0 mph 8.0 mph 56 % 0.00 in
08:26 60.4 °F 44.6 °F 30.28 in North 5.0 mph 8.0 mph 56 % 0.00 in
08:31 61.0 °F 44.2 °F 30.28 in ESE 3.0 mph 9.0 mph 54 % 0.00 in
08:36 61.5 °F 45.1 °F 30.28 in SE 4.0 mph 9.0 mph 55 % 0.00 in
08:41 62.2 °F 44.4 °F 30.28 in SE 1.0 mph 9.0 mph 52 % 0.00 in
08:46 62.4 °F 43.5 °F 30.28 in North 6.0 mph 11.0 mph 50 % 0.00 in
08:51 62.6 °F 44.2 °F 30.28 in ENE 4.0 mph 11.0 mph 51 % 0.00 in
08:56 63.0 °F 44.1 °F 30.28 in ENE 6.0 mph 11.0 mph 50 % 0.00 in
09:01 63.0 °F 44.1 °F 30.28 in East 3.0 mph 11.0 mph 50 % 0.00 in
09:06 63.7 °F 45.1 °F 30.28 in ENE 2.0 mph 9.0 mph 51 % 0.00 in
09:11 64.0 °F 43.9 °F 30.29 in NE 4.0 mph 9.0 mph 48 % 0.00 in
09:16 64.4 °F 44.8 °F 30.29 in North 1.0 mph 9.0 mph 49 % 0.00 in
09:21 64.8 °F 45.1 °F 30.29 in ENE 3.0 mph 9.0 mph 49 % 0.00 in
09:26 64.6 °F 45.0 °F 30.28 in East 4.0 mph 8.0 mph 49 % 0.00 in
09:31 64.9 °F 44.2 °F 30.28 in ENE 2.0 mph 8.0 mph 47 % 0.00 in
09:36 65.1 °F 44.4 °F 30.28 in NW 5.0 mph 8.0 mph 47 % 0.00 in
09:41 65.5 °F 44.8 °F 30.29 in NNE 4.0 mph 8.0 mph 47 % 0.00 in
09:46 65.8 °F 45.0 °F 30.29 in NNW 2.0 mph 8.0 mph 47 % 0.00 in
09:51 66.0 °F 44.6 °F 30.29 in ENE 2.0 mph 8.0 mph 46 % 0.00 in
09:56 66.0 °F 45.1 °F 30.29 in NE 4.0 mph 8.0 mph 47 % 0.00 in
10:02 66.6 °F 44.1 °F 30.28 in ESE 3.0 mph 8.0 mph 44 % 0.00 in
10:07 66.9 °F 47.1 °F 30.28 in East 5.0 mph 8.0 mph 49 % 0.00 in
10:12 67.5 °F 45.3 °F 30.28 in ENE 1.0 mph 8.0 mph 45 % 0.00 in
10:17 68.2 °F 46.6 °F 30.28 in NE 4.0 mph 8.0 mph 46 % 0.00 in
10:22 68.4 °F 45.7 °F 30.28 in ENE 4.0 mph 8.0 mph 44 % 0.00 in
10:27 68.9 °F 46.0 °F 30.28 in ESE 5.0 mph 8.0 mph 44 % 0.00 in
10:32 69.1 °F 45.0 °F 30.28 in NE 3.0 mph 8.0 mph 42 % 0.00 in
10:37 69.3 °F 45.1 °F 30.28 in SSE 4.0 mph 8.0 mph 42 % 0.00 in
10:42 69.1 °F 45.0 °F 30.28 in NNW 3.0 mph 12.0 mph 42 % 0.00 in
10:47 69.3 °F 45.9 °F 30.28 in South 3.0 mph 12.0 mph 43 % 0.00 in
10:52 69.6 °F 46.8 °F 30.28 in North 3.0 mph 12.0 mph 44 % 0.00 in
10:57 69.8 °F 46.2 °F 30.28 in ESE 1.0 mph 9.0 mph 43 % 0.00 in
11:02 70.5 °F 47.5 °F 30.28 in East 4.0 mph 9.0 mph 44 % 0.00 in
11:07 70.9 °F 48.6 °F 30.28 in South 2.0 mph 8.0 mph 45 % 0.00 in
11:12 71.2 °F 48.2 °F 30.28 in SE 2.0 mph 9.0 mph 44 % 0.00 in
11:17 71.2 °F 48.2 °F 30.27 in SE 3.0 mph 9.0 mph 44 % 0.00 in
11:22 71.2 °F 48.2 °F 30.27 in Calm   9.0 mph 44 % 0.00 in
11:27 71.8 °F 48.7 °F 30.27 in North 5.0 mph 9.0 mph 44 % 0.00 in
11:32 71.8 °F 49.3 °F 30.27 in NE 4.0 mph 10.0 mph 45 % 0.00 in
11:37 72.0 °F 51.8 °F 30.27 in ENE 6.0 mph 10.0 mph 49 % 0.00 in
11:42 72.1 °F 50.2 °F 30.26 in SE 5.0 mph 10.0 mph 46 % 0.00 in
11:47 72.0 °F 50.0 °F 30.26 in SE 3.0 mph 9.0 mph 46 % 0.00 in
11:52 72.9 °F 52.0 °F 30.26 in ESE 6.0 mph 9.0 mph 48 % 0.00 in
11:57 72.5 °F 51.1 °F 30.26 in NNW 3.0 mph 9.0 mph 47 % 0.00 in
12:02 72.3 °F 50.9 °F 30.26 in ENE 4.0 mph 8.0 mph 47 % 0.00 in
12:07 72.9 °F 52.5 °F 30.26 in SE 2.0 mph 10.0 mph 49 % 0.00 in
12:12 73.2 °F 51.3 °F 30.26 in SE 3.0 mph 10.0 mph 46 % 0.00 in
12:17 73.2 °F 52.9 °F 30.26 in East 5.0 mph 10.0 mph 49 % 0.00 in
12:22 73.4 °F 53.1 °F 30.26 in SSE 4.0 mph 10.0 mph 49 % 0.00 in
12:27 73.0 °F 52.2 °F 30.26 in ESE 7.0 mph 10.0 mph 48 % 0.00 in
12:32 72.5 °F 52.3 °F 30.26 in ESE 4.0 mph 10.0 mph 49 % 0.00 in
12:37 72.7 °F 52.3 °F 30.26 in ESE 5.0 mph 10.0 mph 49 % 0.00 in
12:42 72.9 °F 53.1 °F 30.25 in ESE 4.0 mph 10.0 mph 50 % 0.00 in
12:47 72.7 °F 54.0 °F 30.25 in SE 2.0 mph 10.0 mph 52 % 0.00 in
12:52 72.9 °F 55.2 °F 30.25 in SE 7.0 mph 10.0 mph 54 % 0.00 in
12:57 73.6 °F 55.4 °F 30.25 in SE 6.0 mph 10.0 mph 53 % 0.00 in
13:02 73.6 °F 54.9 °F 30.25 in ESE 4.0 mph 10.0 mph 52 % 0.00 in
13:07 73.2 °F 55.0 °F 30.24 in SE 4.0 mph 10.0 mph 53 % 0.00 in
13:12 73.0 °F 55.9 °F 30.24 in East 5.0 mph 10.0 mph 55 % 0.00 in
13:17 72.9 °F 55.2 °F 30.23 in ESE 6.0 mph 10.0 mph 54 % 0.00 in
13:22 72.7 °F 55.6 °F 30.23 in East 5.0 mph 10.0 mph 55 % 0.00 in
13:27 72.5 °F 55.4 °F 30.23 in SSE 2.0 mph 12.0 mph 55 % 0.00 in
13:32 72.9 °F 56.3 °F 30.23 in ESE 7.0 mph 12.0 mph 56 % 0.00 in
13:37 72.7 °F 56.5 °F 30.22 in SSE 6.0 mph 12.0 mph 57 % 0.00 in
13:42 72.9 °F 57.2 °F 30.22 in SSW 1.0 mph 10.0 mph 58 % 0.00 in
13:47 72.7 °F 57.0 °F 30.22 in ESE 8.0 mph 10.0 mph 58 % 0.00 in
13:52 72.5 °F 57.4 °F 30.22 in ESE 3.0 mph 11.0 mph 59 % 0.00 in
13:57 72.3 °F 57.2 °F 30.22 in ESE 7.0 mph 11.0 mph 59 % 0.00 in
14:02 72.5 °F 58.3 °F 30.22 in SE 2.0 mph 11.0 mph 61 % 0.00 in
14:07 72.7 °F 58.5 °F 30.22 in ESE 7.0 mph 13.0 mph 61 % 0.00 in
14:12 72.3 °F 57.7 °F 30.22 in SE 3.0 mph 13.0 mph 60 % 0.00 in
14:17 72.1 °F 57.9 °F 30.22 in ESE 4.0 mph 13.0 mph 61 % 0.00 in
14:22 72.1 °F 58.5 °F 30.22 in East 6.0 mph 8.0 mph 62 % 0.00 in
14:28 72.0 °F 58.3 °F 30.22 in East 7.0 mph 11.0 mph 62 % 0.00 in
14:33 71.8 °F 59.0 °F 30.22 in SE 4.0 mph 11.0 mph 64 % 0.00 in
14:38 71.8 °F 58.5 °F 30.21 in ESE 5.0 mph 11.0 mph 63 % 0.00 in
14:43 72.0 °F 59.2 °F 30.21 in SSE 4.0 mph 10.0 mph 64 % 0.00 in
14:48 72.3 °F 59.5 °F 30.21 in ESE 5.0 mph 10.0 mph 64 % 0.00 in
14:53 72.5 °F 59.5 °F 30.21 in SSE 4.0 mph 10.0 mph 64 % 0.00 in
14:58 72.5 °F 60.4 °F 30.21 in ESE 8.0 mph 10.0 mph 66 % 0.00 in
15:03 72.1 °F 60.1 °F 30.21 in ESE 4.0 mph 12.0 mph 66 % 0.00 in
15:08 72.1 °F 60.6 °F 30.21 in SE 7.0 mph 13.0 mph 67 % 0.00 in
15:13 72.0 °F 60.4 °F 30.21 in ESE 7.0 mph 13.0 mph 67 % 0.00 in
15:18 72.0 °F 60.4 °F 30.21 in SSE 3.0 mph 13.0 mph 67 % 0.00 in
15:23 71.4 °F 60.3 °F 30.21 in SSE 9.0 mph 11.0 mph 68 % 0.00 in
15:28 71.1 °F 60.4 °F 30.21 in SE 9.0 mph 13.0 mph 69 % 0.00 in
15:33 70.7 °F 60.4 °F 30.21 in SSE 2.0 mph 13.0 mph 70 % 0.00 in
15:38 70.5 °F 60.6 °F 30.21 in SE 3.0 mph 14.0 mph 71 % 0.00 in
15:43 70.3 °F 60.8 °F 30.21 in SE 7.0 mph 14.0 mph 72 % 0.00 in
15:48 70.2 °F 61.2 °F 30.21 in ESE 4.0 mph 14.0 mph 73 % 0.00 in
15:53 70.2 °F 61.5 °F 30.21 in East 4.0 mph 12.0 mph 74 % 0.00 in
15:58 70.0 °F 62.1 °F 30.21 in ESE 4.0 mph 12.0 mph 76 % 0.00 in
16:03 69.8 °F 61.9 °F 30.21 in East 3.0 mph 8.0 mph 76 % 0.00 in
16:08 69.4 °F 61.9 °F 30.21 in ESE 3.0 mph 8.0 mph 77 % 0.00 in
16:13 69.4 °F 62.2 °F 30.21 in ESE 6.0 mph 8.0 mph 78 % 0.00 in
16:18 69.3 °F 62.4 °F 30.20 in SSE 3.0 mph 8.0 mph 79 % 0.00 in
16:23 69.3 °F 62.4 °F 30.20 in SSE 3.0 mph 9.0 mph 79 % 0.00 in
16:28 69.3 °F 62.1 °F 30.20 in SE 2.0 mph 9.0 mph 78 % 0.00 in
16:33 69.4 °F 62.6 °F 30.20 in East 2.0 mph 9.0 mph 79 % 0.00 in
16:38 69.4 °F 62.2 °F 30.20 in East 3.0 mph 7.0 mph 78 % 0.00 in
16:43 69.4 °F 62.2 °F 30.20 in ESE 3.0 mph 5.0 mph 78 % 0.00 in
16:48 69.4 °F 62.2 °F 30.20 in SSE 2.0 mph 7.0 mph 78 % 0.00 in
16:53 69.4 °F 62.2 °F 30.20 in SE 3.0 mph 7.0 mph 78 % 0.00 in
16:58 69.4 °F 62.2 °F 30.20 in East 3.0 mph 7.0 mph 78 % 0.00 in
17:03 69.3 °F 62.4 °F 30.20 in ESE 3.0 mph 6.0 mph 79 % 0.00 in
17:08 69.1 °F 62.6 °F 30.20 in ESE 6.0 mph 8.0 mph 80 % 0.00 in
17:13 69.1 °F 62.6 °F 30.20 in SE 5.0 mph 8.0 mph 80 % 0.00 in
17:18 69.1 °F 62.6 °F 30.20 in SSE 2.0 mph 8.0 mph 80 % 0.00 in
17:23 69.1 °F 62.6 °F 30.20 in SSE 4.0 mph 7.0 mph 80 % 0.00 in
17:28 69.1 °F 62.6 °F 30.20 in East 1.0 mph 7.0 mph 80 % 0.00 in
17:34 69.3 °F 62.8 °F 30.20 in ESE 4.0 mph 7.0 mph 80 % 0.00 in
17:39 69.1 °F 62.6 °F 30.19 in ESE 2.0 mph 8.0 mph 80 % 0.00 in
17:44 68.9 °F 62.8 °F 30.20 in NE 2.0 mph 8.0 mph 81 % 0.00 in
17:49 68.7 °F 62.6 °F 30.20 in ESE 3.0 mph 8.0 mph 81 % 0.00 in
17:54 68.5 °F 62.8 °F 30.20 in ESE 2.0 mph 6.0 mph 82 % 0.00 in
17:59 68.5 °F 62.8 °F 30.20 in NE 3.0 mph 6.0 mph 82 % 0.00 in
18:04 68.4 °F 63.0 °F 30.20 in SE 1.0 mph 6.0 mph 83 % 0.00 in
18:09 68.2 °F 63.1 °F 30.20 in SE 2.0 mph 6.0 mph 84 % 0.00 in
18:14 68.0 °F 63.0 °F 30.20 in Calm   6.0 mph 84 % 0.00 in
18:19 67.8 °F 63.1 °F 30.20 in SE 3.0 mph 5.0 mph 85 % 0.00 in
18:24 67.8 °F 63.1 °F 30.20 in ESE 3.0 mph 5.0 mph 85 % 0.00 in
18:29 67.6 °F 63.0 °F 30.20 in SE 1.0 mph 5.0 mph 85 % 0.00 in
18:34 67.6 °F 63.0 °F 30.20 in East 2.0 mph 5.0 mph 85 % 0.00 in
18:39 67.6 °F 63.0 °F 30.20 in Calm   4.0 mph 85 % 0.00 in
18:44 67.6 °F 63.0 °F 30.20 in East 2.0 mph 3.0 mph 85 % 0.00 in
18:49 67.5 °F 62.8 °F 30.20 in Calm   3.0 mph 85 % 0.00 in
18:54 67.5 °F 63.1 °F 30.20 in ESE 1.0 mph 4.0 mph 86 % 0.00 in
18:59 67.5 °F 63.1 °F 30.20 in ESE 2.0 mph 5.0 mph 86 % 0.00 in
19:04 67.3 °F 63.0 °F 30.20 in ENE 1.0 mph 5.0 mph 86 % 0.00 in
19:09 67.3 °F 63.0 °F 30.20 in East 1.0 mph 5.0 mph 86 % 0.00 in
19:14 67.3 °F 63.3 °F 30.20 in Calm   3.0 mph 87 % 0.00 in
19:19 67.1 °F 63.1 °F 30.20 in East 1.0 mph 4.0 mph 87 % 0.00 in
19:24 67.1 °F 63.5 °F 30.20 in East 2.0 mph 5.0 mph 88 % 0.00 in
19:29 66.9 °F 63.3 °F 30.20 in SE 2.0 mph 5.0 mph 88 % 0.00 in
19:34 66.9 °F 63.3 °F 30.20 in Calm   5.0 mph 88 % 0.00 in
19:39 66.9 °F 63.3 °F 30.20 in ESE 2.0 mph 4.0 mph 88 % 0.00 in
19:44 66.9 °F 63.3 °F 30.21 in SE 1.0 mph 4.0 mph 88 % 0.00 in
19:49 66.7 °F 63.1 °F 30.21 in East 2.0 mph 3.0 mph 88 % 0.00 in
19:54 66.7 °F 63.3 °F 30.21 in ESE 3.0 mph 4.0 mph 89 % 0.00 in
19:59 66.7 °F 63.3 °F 30.21 in SE 1.0 mph 4.0 mph 89 % 0.00 in
20:04 66.7 °F 63.3 °F 30.21 in ESE 3.0 mph 4.0 mph 89 % 0.00 in
20:09 66.7 °F 63.3 °F 30.21 in SE 2.0 mph 4.0 mph 89 % 0.00 in
20:14 66.7 °F 63.3 °F 30.21 in SE 1.0 mph 4.0 mph 89 % 0.00 in
20:19 66.6 °F 63.1 °F 30.21 in East 2.0 mph 4.0 mph 89 % 0.00 in
20:24 66.6 °F 63.5 °F 30.22 in SE 1.0 mph 3.0 mph 90 % 0.00 in
20:29 66.6 °F 63.5 °F 30.22 in ESE 1.0 mph 5.0 mph 90 % 0.00 in
20:34 66.6 °F 63.5 °F 30.22 in SE 1.0 mph 5.0 mph 90 % 0.00 in
20:39 66.4 °F 63.3 °F 30.22 in SE 1.0 mph 5.0 mph 90 % 0.00 in
20:44 66.6 °F 63.5 °F 30.22 in SSE 2.0 mph 4.0 mph 90 % 0.00 in
20:49 66.6 °F 63.5 °F 30.22 in ESE 3.0 mph 4.0 mph 90 % 0.00 in
20:54 66.6 °F 63.5 °F 30.22 in SSE 1.0 mph 5.0 mph 90 % 0.00 in
20:59 66.6 °F 63.5 °F 30.22 in East 5.0 mph 5.0 mph 90 % 0.00 in
21:04 66.4 °F 63.7 °F 30.22 in ESE 2.0 mph 6.0 mph 91 % 0.00 in
21:09 66.4 °F 63.7 °F 30.22 in ESE 1.0 mph 6.0 mph 91 % 0.00 in
21:15 66.2 °F 63.5 °F 30.22 in SE 1.0 mph 6.0 mph 91 % 0.00 in
21:20 66.0 °F 63.3 °F 30.22 in East 1.0 mph 5.0 mph 91 % 0.00 in
21:25 66.0 °F 63.7 °F 30.22 in SE 6.0 mph 6.0 mph 92 % 0.00 in
21:30 65.8 °F 63.5 °F 30.22 in SE 1.0 mph 7.0 mph 92 % 0.00 in
21:35 65.8 °F 63.7 °F 30.22 in South 2.0 mph 7.0 mph 93 % 0.00 in
21:36 65.8 °F 63.7 °F 30.22 in ESE 1.0 mph 7.0 mph 93 % 0.00 in
21:41 65.7 °F 63.5 °F 30.22 in ESE 2.0 mph 6.0 mph 93 % 0.00 in
21:46 65.5 °F 63.3 °F 30.22 in ESE 3.0 mph 6.0 mph 93 % 0.00 in
21:51 65.5 °F 63.7 °F 30.22 in ESE 2.0 mph 6.0 mph 94 % 0.00 in
21:56 65.5 °F 63.7 °F 30.22 in ESE 2.0 mph 6.0 mph 94 % 0.00 in
21:57 65.3 °F 63.5 °F 30.22 in East 1.0 mph 6.0 mph 94 % 0.00 in
22:02 65.3 °F 63.5 °F 30.22 in East 2.0 mph 6.0 mph 94 % 0.00 in
22:07 65.1 °F 63.3 °F 30.22 in SE 3.0 mph 5.0 mph 94 % 0.00 in
22:12 65.1 °F 63.7 °F 30.22 in SE 1.0 mph 5.0 mph 95 % 0.00 in
22:17 65.1 °F 63.7 °F 30.22 in ESE 1.0 mph 5.0 mph 95 % 0.00 in
22:22 65.1 °F 63.7 °F 30.22 in East 2.0 mph 5.0 mph 95 % 0.00 in
22:27 65.1 °F 63.7 °F 30.22 in ESE 4.0 mph 4.0 mph 95 % 0.00 in
22:32 64.9 °F 63.5 °F 30.22 in SE 2.0 mph 5.0 mph 95 % 0.00 in
22:37 64.9 °F 63.9 °F 30.21 in ENE 1.0 mph 5.0 mph 96 % 0.00 in
22:42 64.9 °F 63.9 °F 30.21 in ESE 2.0 mph 5.0 mph 96 % 0.00 in
22:47 64.9 °F 63.9 °F 30.21 in ESE 2.0 mph 4.0 mph 96 % 0.00 in
22:52 64.9 °F 63.9 °F 30.21 in East 2.0 mph 5.0 mph 96 % 0.00 in
22:57 64.9 °F 63.9 °F 30.21 in ENE 3.0 mph 5.0 mph 96 % 0.00 in
23:02 64.9 °F 63.9 °F 30.20 in ESE 1.0 mph 5.0 mph 96 % 0.00 in
23:07 64.9 °F 63.9 °F 30.20 in Calm   4.0 mph 96 % 0.00 in
23:12 64.9 °F 64.0 °F 30.20 in ESE 1.0 mph 6.0 mph 97 % 0.00 in
23:17 64.9 °F 64.0 °F 30.20 in ESE 2.0 mph 6.0 mph 97 % 0.00 in
23:22 64.9 °F 64.0 °F 30.19 in Calm   6.0 mph 97 % 0.00 in
23:27 64.9 °F 64.0 °F 30.19 in East 1.0 mph 3.0 mph 97 % 0.00 in
23:32 64.9 °F 64.0 °F 30.19 in ESE 1.0 mph 5.0 mph 97 % 0.00 in
23:37 64.9 °F 64.0 °F 30.19 in East 3.0 mph 5.0 mph 97 % 0.00 in
23:42 64.9 °F 64.0 °F 30.19 in ENE 3.0 mph 5.0 mph 97 % 0.00 in
23:47 64.9 °F 64.0 °F 30.19 in ESE 2.0 mph 4.0 mph 97 % 0.00 in
23:52 64.9 °F 64.0 °F 30.19 in ESE 1.0 mph 5.0 mph 97 % 0.00 in
23:57 64.9 °F 64.0 °F 30.19 in ESE 1.0 mph 5.0 mph 97 % 0.00 in
Spring, Texas: Villages of Bridgestone
Compliments of Weather Underground - 3 mb

Script developed by  Jim McMurry - jmcmurry@mwt.net Adapted for the template by  Wim van der Kuil - Leuven-Template.eu

You find our weather info also at:

UK Metoffice

WeatherCloud

Weather Underground

Mid-South Weather Network

AWEKAS

Citizen Weather Observer Program (CWOP)

HAMweather, WeatherForYou, PWS Weather

Equipment we use:

Weather-station
Davis Vantage Vue

Weather-program
Meteohub

Weather-server
Debian 7.9 x86 (Guest)

Provider
DreamHost

Davis Vantage Vue

Meteohub

Debian 7.9 x86 (Guest)

DreamHost